QPF
0.00 0.00 0.00 0.00 0.00 0.00 0.00 0.00 0.00 0.00 0.00 0.00 0.00 0.00 0.00 0.00 0.00 0.00 0.00 0.00 0.00 0.00 0.00 0.00 0.00 0.00 0.00 0.00 0.00 0.00 0.00 0.00 0.00 0.00 0.00 0.00 0.00 0.00 0.00 0.00 0.00 0.00 0.00 0.00
0.00 0.00 0.00 0.00 0.00 0.00 0.00 0.00 0.00 0.00 0.00 0.00 0.00 0.00 0.00 0.00 0.00 0.00 0.00 0.00 0.00 0.00 0.00 0.00 0.00 0.00 0.00 0.00 0.00 0.00 0.00 0.00 0.00 0.00 0.00 0.00 0.00 0.00 0.00 0.00 0.00 0.00 0.00 0.00
0.00 0.00 0.00 0.00 0.00 0.00 0.00 0.00 0.00 0.00 0.00 0.00 0.00 0.00 0.00 0.00 0.00 0.00 0.00 0.00 0.00 0.00 0.00 0.00 0.00 0.00 0.00 0.00 0.00 0.00 0.00 0.00 0.00 0.00 0.00 0.00 0.00 0.00 0.00 0.00 0.00 0.00 0.00 0.00
0.00 0.00 0.00 0.00 0.00 0.00 0.00 0.00 0.00 0.00 0.00 0.00 0.00 0.00 0.00 0.00 0.00 0.00 0.00 0.00 0.00 0.00 0.00 0.00 0.00 0.00 0.00 0.00 0.00 0.00 0.00 0.00 0.00 0.00 0.00 0.00 0.00 0.00 0.00 0.00 0.00 0.00 0.00 0.00
0.00 0.00 0.00 0.00 0.00 0.00 0.00 0.00 0.00 0.00 0.00 0.00 0.00 0.00 0.00 0.00 0.00 0.00 0.00 0.00 0.00 0.00 0.00 0.00 0.00 0.00 0.00 0.00 0.00 0.00 0.00 0.00 0.00 0.00 0.00 0.00 0.00 0.00 0.00 0.00 0.00 0.00 0.00 0.00
0.00 0.00 0.00 0.00 0.00 0.00 0.00 0.00 0.00 0.00 0.00 0.00 0.00 0.00 0.00 0.00 0.00 0.00 0.00 0.00 0.00 0.00 0.00 0.00 0.00 0.00 0.00 0.00 0.00 0.00 0.00 0.00 0.00 0.00 0.00 0.00 0.00 0.00 0.00 0.00 0.00 0.00 0.00 0.00
0.00 0.00 0.00 0.00 0.00 0.00 0.00 0.00 0.00 0.00 0.00 0.00 0.00 0.00 0.00 0.00 0.00 0.00 0.00 0.00 0.00 0.00 0.00 0.00 0.00 0.00 0.00 0.00 0.00 0.00 0.00 0.00 0.00 0.00 0.00 0.00 0.00 0.00 0.00 0.00 0.00 0.00 0.00 0.00
0.00 0.00 0.00 0.00 0.00 0.00 0.00 0.00 0.00 0.00 0.00 0.00 0.00 0.00 0.00 0.00 0.00 0.00 0.00 0.00 0.00 0.00 0.00 0.00 0.00 0.00 0.00 0.00 0.00 0.00 0.00 0.00 0.00 0.00 0.00 0.00 0.00 0.00 0.00 0.00 0.00 0.00 0.00 0.00
0.00 0.00 0.00 0.00 0.00 0.00 0.00 0.00 0.00 0.00 0.00 0.00 0.00 0.00 0.00 0.00 0.00 0.00 0.00 0.00 0.00 0.00 0.00 0.00 0.00 0.00 0.00 0.00 0.00 0.00 0.00 0.00 0.00 0.00 0.00 0.00 0.00 0.00 0.00 0.00 0.01 0.01 0.00 0.00
0.00 0.00 0.00 0.00 0.00 0.00 0.00 0.00 0.00 0.00 0.00 0.00 0.00 0.00 0.00 0.00 0.00 0.00 0.00 0.00 0.00 0.00 0.00 0.00 0.00 0.00 0.00 0.00 0.00 0.00 0.00 0.00 0.00 0.00 0.00 0.00 0.00 0.00 0.00 0.00 0.01 0.01 0.02 0.02
0.00 0.00 0.00 0.00 0.00 0.00 0.00 0.00 0.00 0.00 0.00 0.00 0.00 0.00 0.00 0.00 0.00 0.00 0.00 0.00 0.00 0.00 0.00 0.00 0.00 0.00 0.00 0.00 0.00 0.00 0.00 0.00 0.00 0.00 0.00 0.00 0.00 0.00 0.00 0.00 0.01 0.02 0.03 0.03
0.00 0.00 0.00 0.00 0.00 0.00 0.00 0.00 0.00 0.00 0.00 0.00 0.00 0.00 0.00 0.00 0.00 0.00 0.00 0.00 0.00 0.00 0.00 0.00 0.00 0.00 0.00 0.00 0.00 0.00 0.00 0.00 0.00 0.00 0.00 0.00 0.00 0.00 0.00 0.00 0.00 0.01 0.01 0.01
0.00 0.00 0.00 0.00 0.00 0.00 0.00 0.00 0.00 0.00 0.00 0.00 0.00 0.00 0.00 0.00 0.00 0.00 0.00 0.00 0.00 0.00 0.00 0.00 0.00 0.00 0.00 0.00 0.00 0.00 0.00 0.00 0.00 0.00 0.00 0.00 0.01 0.01 0.01 0.00 0.00 0.00 0.00 0.01
0.00 0.00 0.00 0.00 0.00 0.00 0.00 0.00 0.00 0.00 0.00 0.00 0.00 0.00 0.00 0.00 0.00 0.00 0.00 0.00 0.00 0.00 0.00 0.00 0.00 0.00 0.00 0.00 0.00 0.00 0.00 0.00 0.00 0.00 0.00 0.01 0.01 0.01 0.01 0.01 0.01 0.00 0.00 0.00
0.00 0.00 0.00 0.00 0.00 0.00 0.00 0.00 0.00 0.00 0.00 0.00 0.00 0.00 0.00 0.00 0.00 0.00 0.00 0.00 0.00 0.00 0.00 0.00 0.00 0.00 0.00 0.00 0.00 0.00 0.00 0.00 0.00 0.00 0.01 0.01 0.01 0.01 0.01 0.01 0.01 0.01 0.00 0.00
0.00 0.00 0.00 0.00 0.00 0.00 0.00 0.00 0.00 0.00 0.00 0.00 0.00 0.00 0.00 0.00 0.00 0.00 0.00 0.00 0.00 0.00 0.00 0.00 0.00 0.00 0.00 0.00 0.00 0.00 0.00 0.00 0.00 0.01 0.01 0.01 0.01 0.01 0.01 0.01 0.01 0.01 0.01 0.01
0.00 0.00 0.00 0.00 0.00 0.00 0.00 0.00 0.00 0.00 0.00 0.00 0.00 0.00 0.00 0.00 0.00 0.00 0.00 0.00 0.00 0.00 0.00 0.00 0.00 0.00 0.00 0.00 0.00 0.00 0.00 0.00 0.00 0.01 0.01 0.01 0.01 0.01 0.01 0.02 0.02 0.01 0.01 0.00
0.00 0.00 0.00 0.00 0.00 0.00 0.00 0.00 0.00 0.00 0.00 0.00 0.00 0.00 0.00 0.00 0.00 0.00 0.00 0.00 0.00 0.00 0.00 0.00 0.00 0.00 0.00 0.00 0.00 0.00 0.00 0.01 0.01 0.01 0.01 0.01 0.01 0.01 0.01 0.02 0.01 0.01 0.01 0.01
0.00 0.00 0.00 0.00 0.00 0.00 0.00 0.00 0.00 0.00 0.00 0.00 0.00 0.00 0.00 0.00 0.00 0.00 0.00 0.00 0.00 0.00 0.00 0.00 0.00 0.00 0.00 0.00 0.00 0.00 0.01 0.01 0.01 0.01 0.01 0.01 0.01 0.01 0.01 0.01 0.01 0.01 0.01 0.01
0.00 0.00 0.00 0.00 0.00 0.00 0.00 0.00 0.00 0.00 0.00 0.00 0.00 0.00 0.00 0.00 0.00 0.00 0.00 0.00 0.00 0.00 0.00 0.00 0.00 0.00 0.00 0.00 0.00 0.01 0.01 0.01 0.01 0.01 0.01 0.01 0.01 0.01 0.01 0.01 0.01 0.01 0.01 0.01
0.00 0.00 0.00 0.00 0.00 0.00 0.00 0.00 0.00 0.00 0.00 0.00 0.00 0.00 0.00 0.00 0.00 0.00 0.00 0.00 0.00 0.00 0.00 0.00 0.00 0.00 0.00 0.00 0.01 0.01 0.01 0.01 0.01 0.01 0.01 0.01 0.01 0.01 0.01 0.01 0.01 0.01 0.01 0.01
0.00 0.00 0.00 0.00 0.00 0.00 0.00 0.00 0.00 0.00 0.00 0.00 0.00 0.00 0.00 0.00 0.00 0.00 0.00 0.00 0.00 0.00 0.00 0.00 0.00 0.00 0.00 0.01 0.01 0.01 0.01 0.01 0.01 0.01 0.01 0.01 0.01 0.01 0.01 0.01 0.01 0.01 0.01 0.01
0.00 0.00 0.00 0.00 0.00 0.00 0.00 0.00 0.00 0.00 0.00 0.00 0.00 0.00 0.00 0.00 0.00 0.00 0.00 0.00 0.00 0.00 0.00 0.00 0.00 0.00 0.01 0.01 0.01 0.01 0.00 0.00 0.00 0.01 0.01 0.01 0.01 0.01 0.01 0.01 0.01 0.01 0.01 0.01
0.00 0.00 0.00 0.00 0.00 0.00 0.00 0.00 0.00 0.00 0.00 0.00 0.00 0.00 0.00 0.00 0.00 0.00 0.00 0.00 0.00 0.00 0.00 0.00 0.00 0.00 0.01 0.01 0.00 0.00 0.00 0.00 0.01 0.01 0.01 0.01 0.01 0.01 0.01 0.01 0.01 0.01 0.01 0.01
0.00 0.00 0.00 0.00 0.00 0.00 0.00 0.00 0.00 0.00 0.00 0.00 0.00 0.00 0.00 0.00 0.00 0.00 0.00 0.00 0.00 0.00 0.00 0.00 0.00 0.00 0.00 0.00 0.00 0.00 0.00 0.01 0.01 0.02 0.02 0.01 0.01 0.01 0.01 0.01 0.01 0.01 0.01 0.01
0.00 0.00 0.00 0.00 0.00 0.00 0.00 0.00 0.00 0.00 0.00 0.00 0.00 0.00 0.00 0.00 0.00 0.00 0.00 0.00 0.00 0.00 0.00 0.00 0.00 0.00 0.00 0.00 0.00 0.00 0.01 0.01 0.01 0.01 0.01 0.01 0.01 0.01 0.01 0.01 0.01 0.01 0.01 0.01
0.00 0.00 0.00 0.00 0.00 0.00 0.00 0.00 0.00 0.00 0.00 0.00 0.00 0.00 0.00 0.00 0.00 0.00 0.00 0.00 0.00 0.00 0.00 0.00 0.00 0.00 0.00 0.00 0.00 0.00 0.01 0.01 0.01 0.01 0.01 0.01 0.01 0.01 0.01 0.01 0.01 0.01 0.01 0.01
MSLP
1017.22 1017.52 1017.71 1017.79 1017.77 1017.66 1017.51 1017.34 1017.20 1017.13 1017.15 1017.27 1017.52 1017.86 1018.29 1018.77 1019.26 1019.74 1020.17 1020.54 1020.82 1021.02 1021.13 1021.17 1021.14 1021.06 1020.93 1020.76 1020.54 1020.26 1019.93 1019.53 1019.08 1018.56 1017.99 1017.39 1016.76 1016.13 1015.51 1014.90 1014.32 1013.75 1013.21 1012.67
1017.14 1017.33 1017.42 1017.40 1017.31 1017.16 1017.01 1016.88 1016.81 1016.83 1016.96 1017.19 1017.54 1017.97 1018.46 1018.98 1019.50 1020.00 1020.43 1020.79 1021.07 1021.25 1021.35 1021.37 1021.32 1021.20 1021.03 1020.80 1020.52 1020.18 1019.79 1019.34 1018.83 1018.27 1017.66 1017.01 1016.34 1015.66 1014.98 1014.31 1013.67 1013.05 1012.45 1011.87
1017.09 1017.16 1017.12 1017.00 1016.83 1016.64 1016.49 1016.40 1016.41 1016.53 1016.77 1017.11 1017.56 1018.08 1018.64 1019.20 1019.75 1020.25 1020.69 1021.04 1021.31 1021.48 1021.55 1021.55 1021.46 1021.30 1021.07 1020.78 1020.44 1020.04 1019.59 1019.09 1018.53 1017.93 1017.29 1016.61 1015.90 1015.19 1014.46 1013.75 1013.05 1012.38 1011.73 1011.11
1017.02 1016.96 1016.80 1016.58 1016.35 1016.14 1016.00 1015.96 1016.05 1016.27 1016.62 1017.07 1017.62 1018.21 1018.83 1019.43 1020.00 1020.50 1020.93 1021.26 1021.50 1021.65 1021.70 1021.65 1021.52 1021.31 1021.03 1020.68 1020.28 1019.82 1019.31 1018.77 1018.18 1017.55 1016.89 1016.20 1015.49 1014.75 1014.01 1013.26 1012.52 1011.80 1011.10 1010.43
1016.87 1016.70 1016.45 1016.16 1015.88 1015.67 1015.57 1015.60 1015.78 1016.10 1016.55 1017.11 1017.74 1018.40 1019.05 1019.67 1020.23 1020.72 1021.12 1021.42 1021.62 1021.73 1021.73 1021.65 1021.47 1021.21 1020.88 1020.48 1020.02 1019.52 1018.97 1018.40 1017.79 1017.16 1016.50 1015.81 1015.10 1014.37 1013.62 1012.85 1012.09 1011.33 1010.58 1009.86
1016.60 1016.36 1016.05 1015.73 1015.46 1015.28 1015.24 1015.35 1015.63 1016.06 1016.61 1017.25 1017.94 1018.63 1019.30 1019.91 1020.44 1020.88 1021.23 1021.48 1021.63 1021.68 1021.64 1021.51 1021.29 1020.99 1020.62 1020.18 1019.69 1019.15 1018.59 1018.00 1017.38 1016.76 1016.11 1015.44 1014.74 1014.02 1013.28 1012.51 1011.73 1010.94 1010.16 1009.40
1016.20 1015.93 1015.62 1015.32 1015.09 1014.99 1015.04 1015.26 1015.64 1016.17 1016.80 1017.50 1018.22 1018.92 1019.57 1020.13 1020.60 1020.97 1021.24 1021.41 1021.49 1021.48 1021.39 1021.21 1020.97 1020.64 1020.25 1019.79 1019.29 1018.74 1018.17 1017.58 1016.97 1016.35 1015.72 1015.07 1014.39 1013.69 1012.95 1012.19 1011.41 1010.61 1009.80 1009.01
1015.69 1015.45 1015.19 1014.96 1014.83 1014.83 1014.99 1015.33 1015.81 1016.42 1017.12 1017.85 1018.58 1019.25 1019.83 1020.32 1020.70 1020.97 1021.14 1021.22 1021.21 1021.14 1021.00 1020.79 1020.52 1020.19 1019.80 1019.35 1018.85 1018.32 1017.75 1017.17 1016.57 1015.95 1015.32 1014.68 1014.01 1013.31 1012.59 1011.84 1011.06 1010.26 1009.45 1008.64
1015.13 1014.96 1014.80 1014.69 1014.68 1014.82 1015.11 1015.55 1016.13 1016.81 1017.54 1018.28 1018.97 1019.57 1020.07 1020.45 1020.72 1020.87 1020.92 1020.90 1020.82 1020.68 1020.50 1020.27 1020.00 1019.68 1019.31 1018.89 1018.41 1017.90 1017.35 1016.77 1016.16 1015.54 1014.90 1014.25 1013.57 1012.87 1012.15 1011.40 1010.63 1009.84 1009.05 1008.25
1014.57 1014.52 1014.49 1014.53 1014.67 1014.95 1015.37 1015.91 1016.57 1017.29 1018.02 1018.72 1019.35 1019.87 1020.25 1020.51 1020.65 1020.67 1020.61 1020.49 1020.33 1020.14 1019.93 1019.70 1019.44 1019.14 1018.81 1018.42 1017.98 1017.49 1016.96 1016.37 1015.76 1015.11 1014.45 1013.76 1013.06 1012.34 1011.60 1010.86 1010.10 1009.34 1008.58 1007.82
1014.11 1014.19 1014.31 1014.50 1014.79 1015.20 1015.73 1016.36 1017.06 1017.78 1018.49 1019.14 1019.68 1020.08 1020.35 1020.48 1020.49 1020.39 1020.23 1020.02 1019.79 1019.56 1019.33 1019.10 1018.86 1018.61 1018.32 1017.97 1017.57 1017.11 1016.58 1015.99 1015.35 1014.67 1013.96 1013.22 1012.48 1011.72 1010.97 1010.23 1009.49 1008.76 1008.05 1007.35
1013.78 1013.99 1014.26 1014.59 1015.01 1015.54 1016.15 1016.83 1017.54 1018.24 1018.89 1019.46 1019.89 1020.18 1020.33 1020.34 1020.23 1020.03 1019.77 1019.50 1019.22 1018.96 1018.73 1018.51 1018.30 1018.08 1017.83 1017.53 1017.16 1016.72 1016.19 1015.59 1014.92 1014.20 1013.44 1012.65 1011.85 1011.07 1010.29 1009.55 1008.83 1008.15 1007.50 1006.87
1013.63 1013.95 1014.33 1014.79 1015.31 1015.91 1016.57 1017.26 1017.95 1018.60 1019.17 1019.64 1019.97 1020.15 1020.18 1020.08 1019.88 1019.60 1019.28 1018.95 1018.64 1018.36 1018.13 1017.92 1017.74 1017.55 1017.33 1017.06 1016.72 1016.29 1015.77 1015.16 1014.47 1013.71 1012.90 1012.06 1011.23 1010.41 1009.62 1008.88 1008.19 1007.55 1006.96 1006.41
1013.64 1014.05 1014.53 1015.06 1015.65 1016.28 1016.94 1017.61 1018.25 1018.82 1019.30 1019.67 1019.89 1019.96 1019.90 1019.72 1019.44 1019.11 1018.74 1018.38 1018.05 1017.76 1017.52 1017.32 1017.15 1016.98 1016.79 1016.54 1016.22 1015.80 1015.29 1014.67 1013.97 1013.18 1012.35 1011.49 1010.63 1009.80 1009.01 1008.28 1007.61 1007.01 1006.47 1005.98
1013.81 1014.28 1014.80 1015.38 1015.99 1016.62 1017.25 1017.86 1018.42 1018.90 1019.28 1019.54 1019.66 1019.65 1019.51 1019.27 1018.94 1018.57 1018.17 1017.79 1017.44 1017.14 1016.89 1016.69 1016.52 1016.35 1016.16 1015.93 1015.62 1015.22 1014.71 1014.11 1013.41 1012.63 1011.80 1010.94 1010.09 1009.26 1008.47 1007.76 1007.11 1006.54 1006.04 1005.60
1014.11 1014.60 1015.15 1015.73 1016.32 1016.92 1017.49 1018.02 1018.48 1018.86 1019.14 1019.29 1019.33 1019.24 1019.04 1018.75 1018.39 1018.00 1017.58 1017.18 1016.82 1016.50 1016.24 1016.01 1015.82 1015.64 1015.45 1015.21 1014.91 1014.52 1014.04 1013.46 1012.80 1012.05 1011.25 1010.42 1009.59 1008.78 1008.02 1007.32 1006.70 1006.15 1005.67 1005.24
1014.50 1015.00 1015.54 1016.10 1016.65 1017.18 1017.68 1018.11 1018.47 1018.74 1018.91 1018.97 1018.93 1018.77 1018.53 1018.21 1017.83 1017.41 1016.99 1016.57 1016.19 1015.85 1015.55 1015.29 1015.07 1014.86 1014.64 1014.40 1014.10 1013.73 1013.28 1012.74 1012.12 1011.43 1010.68 1009.90 1009.12 1008.35 1007.62 1006.94 1006.33 1005.78 1005.30 1004.87
1014.98 1015.47 1015.98 1016.49 1016.98 1017.44 1017.84 1018.17 1018.41 1018.58 1018.65 1018.63 1018.51 1018.30 1018.02 1017.67 1017.28 1016.85 1016.41 1015.98 1015.57 1015.19 1014.85 1014.55 1014.28 1014.02 1013.78 1013.52 1013.22 1012.87 1012.45 1011.97 1011.41 1010.78 1010.10 1009.39 1008.65 1007.93 1007.22 1006.56 1005.95 1005.40 1004.90 1004.45
1015.51 1015.97 1016.44 1016.90 1017.32 1017.68 1017.98 1018.21 1018.35 1018.41 1018.39 1018.29 1018.11 1017.85 1017.54 1017.17 1016.76 1016.32 1015.86 1015.41 1014.96 1014.54 1014.15 1013.80 1013.48 1013.18 1012.90 1012.62 1012.32 1011.98 1011.60 1011.16 1010.67 1010.11 1009.50 1008.85 1008.17 1007.48 1006.80 1006.15 1005.53 1004.96 1004.44 1003.96
1016.07 1016.49 1016.91 1017.30 1017.64 1017.92 1018.12 1018.24 1018.28 1018.25 1018.14 1017.97 1017.73 1017.43 1017.09 1016.70 1016.27 1015.81 1015.34 1014.86 1014.38 1013.92 1013.49 1013.08 1012.71 1012.37 1012.05 1011.74 1011.44 1011.11 1010.76 1010.37 1009.93 1009.43 1008.88 1008.28 1007.65 1006.99 1006.33 1005.68 1005.05 1004.45 1003.89 1003.38
1016.61 1016.99 1017.35 1017.67 1017.92 1018.10 1018.21 1018.23 1018.18 1018.07 1017.89 1017.65 1017.36 1017.03 1016.65 1016.24 1015.80 1015.33 1014.84 1014.33 1013.83 1013.33 1012.86 1012.41 1011.99 1011.61 1011.26 1010.93 1010.62 1010.30 1009.97 1009.61 1009.21 1008.75 1008.25 1007.69 1007.09 1006.45 1005.80 1005.14 1004.50 1003.88 1003.29 1002.75
1017.09 1017.42 1017.71 1017.94 1018.11 1018.20 1018.22 1018.15 1018.02 1017.83 1017.58 1017.29 1016.96 1016.60 1016.20 1015.77 1015.32 1014.83 1014.33 1013.81 1013.28 1012.76 1012.25 1011.77 1011.32 1010.91 1010.53 1010.19 1009.86 1009.55 1009.24 1008.89 1008.52 1008.10 1007.62 1007.09 1006.50 1005.88 1005.23 1004.56 1003.90 1003.26 1002.66 1002.10
1017.46 1017.72 1017.93 1018.08 1018.16 1018.17 1018.10 1017.96 1017.75 1017.50 1017.20 1016.86 1016.50 1016.11 1015.69 1015.25 1014.79 1014.30 1013.78 1013.25 1012.72 1012.18 1011.65 1011.15 1010.68 1010.25 1009.86 1009.50 1009.18 1008.87 1008.56 1008.23 1007.87 1007.46 1007.01 1006.49 1005.91 1005.29 1004.64 1003.97 1003.30 1002.64 1002.03 1001.46
1017.67 1017.85 1017.98 1018.05 1018.05 1017.97 1017.82 1017.61 1017.35 1017.04 1016.70 1016.34 1015.95 1015.54 1015.11 1014.66 1014.19 1013.70 1013.19 1012.65 1012.11 1011.57 1011.04 1010.53 1010.06 1009.62 1009.22 1008.86 1008.54 1008.23 1007.92 1007.60 1007.25 1006.85 1006.40 1005.89 1005.32 1004.71 1004.05 1003.38 1002.70 1002.04 1001.42 1000.85
1017.69 1017.80 1017.85 1017.83 1017.75 1017.60 1017.39 1017.12 1016.81 1016.47 1016.10 1015.71 1015.31 1014.89 1014.45 1014.01 1013.54 1013.05 1012.53 1012.01 1011.47 1010.93 1010.41 1009.90 1009.43 1008.99 1008.60 1008.24 1007.92 1007.61 1007.31 1006.99 1006.65 1006.26 1005.81 1005.30 1004.74 1004.13 1003.47 1002.80 1002.13 1001.47 1000.85 1000.28
1017.55 1017.58 1017.55 1017.46 1017.31 1017.09 1016.83 1016.52 1016.18 1015.81 1015.42 1015.02 1014.61 1014.19 1013.75 1013.30 1012.84 1012.35 1011.85 1011.32 1010.79 1010.26 1009.74 1009.25 1008.78 1008.35 1007.97 1007.62 1007.30 1007.00 1006.70 1006.39 1006.04 1005.66 1005.22 1004.72 1004.16 1003.54 1002.90 1002.23 1001.56 1000.90 1000.28 999.70
1017.28 1017.23 1017.13 1016.98 1016.77 1016.51 1016.21 1015.87 1015.51 1015.12 1014.73 1014.32 1013.91 1013.49 1013.05 1012.61 1012.14 1011.66 1011.16 1010.64 1010.12 1009.59 1009.08 1008.59 1008.13 1007.72 1007.33 1006.99 1006.68 1006.38 1006.08 1005.77 1005.43 1005.05 1004.61 1004.11 1003.55 1002.94 1002.29 1001.63 1000.96 1000.30 999.68 999.09
Thickness
5626 5621 5622 5625 5623 5614 5618 5628 5627 5636 5634 5636 5630 5623 5617 5610 5601 5594 5587 5579 5572 5566 5561 5554 5548 5543 5537 5531 5525 5520 5515 5511 5506 5501 5496 5490 5485 5480 5475 5469 5462 5456 5450 5444
5612 5607 5607 5610 5619 5618 5616 5621 5624 5625 5627 5631 5621 5613 5606 5600 5591 5584 5578 5570 5562 5555 5550 5544 5539 5532 5526 5521 5515 5509 5504 5499 5494 5488 5483 5477 5472 5466 5461 5455 5448 5441 5435 5428
5610 5598 5600 5611 5628 5622 5617 5619 5619 5617 5623 5615 5605 5600 5596 5590 5582 5574 5567 5559 5552 5545 5539 5533 5528 5521 5515 5509 5503 5497 5492 5487 5481 5475 5470 5464 5458 5453 5447 5441 5434 5427 5421 5414
5598 5593 5588 5629 5621 5620 5617 5616 5613 5611 5607 5602 5597 5590 5583 5578 5572 5564 5555 5547 5541 5534 5527 5521 5515 5509 5503 5497 5491 5486 5480 5475 5469 5463 5457 5451 5445 5439 5433 5426 5420 5414 5408 5401
5588 5594 5606 5619 5612 5607 5605 5610 5609 5603 5597 5589 5581 5575 5571 5562 5557 5551 5543 5536 5529 5522 5516 5510 5504 5497 5491 5485 5480 5474 5469 5463 5456 5450 5444 5438 5431 5425 5418 5412 5406 5400 5394 5388
5580 5580 5588 5615 5605 5601 5599 5602 5603 5595 5588 5579 5571 5571 5569 5552 5543 5536 5529 5522 5516 5510 5504 5498 5493 5485 5478 5475 5470 5465 5458 5451 5443 5436 5430 5424 5417 5411 5404 5398 5392 5387 5382 5377
5581 5578 5596 5605 5592 5589 5589 5601 5591 5586 5580 5571 5566 5564 5552 5540 5531 5523 5516 5510 5503 5498 5493 5487 5480 5473 5468 5464 5459 5453 5445 5437 5431 5424 5417 5410 5403 5397 5390 5385 5380 5376 5372 5368
5577 5572 5584 5589 5582 5586 5591 5582 5578 5573 5567 5559 5553 5542 5533 5525 5518 5510 5504 5498 5492 5487 5482 5475 5468 5462 5458 5454 5448 5440 5433 5426 5419 5412 5404 5396 5390 5385 5378 5372 5368 5365 5362 5360
5585 5590 5585 5581 5581 5577 5573 5570 5564 5559 5551 5544 5535 5528 5519 5512 5506 5499 5492 5487 5480 5475 5470 5464 5458 5452 5446 5442 5435 5428 5421 5415 5408 5401 5392 5385 5379 5373 5367 5361 5356 5353 5351 5350
5572 5577 5573 5568 5565 5561 5559 5556 5549 5543 5536 5529 5522 5515 5507 5500 5493 5487 5481 5475 5469 5463 5459 5455 5448 5441 5435 5429 5421 5415 5409 5404 5397 5389 5383 5375 5368 5361 5355 5350 5345 5342 5340 5339
5566 5566 5559 5557 5555 5551 5544 5538 5531 5525 5519 5514 5508 5501 5495 5488 5482 5476 5469 5463 5457 5451 5447 5442 5437 5430 5423 5416 5409 5403 5397 5391 5385 5377 5370 5365 5358 5351 5345 5341 5333 5330 5329 5328
5569 5567 5560 5558 5548 5540 5531 5524 5518 5511 5504 5498 5492 5487 5481 5476 5470 5463 5457 5452 5446 5441 5436 5432 5426 5420 5412 5405 5397 5390 5385 5379 5372 5365 5359 5353 5349 5346 5341 5333 5330 5325 5321 5319
5556 5548 5545 5539 5532 5525 5519 5511 5504 5498 5491 5485 5479 5473 5468 5462 5457 5451 5445 5440 5435 5431 5426 5420 5414 5408 5401 5393 5384 5377 5370 5365 5359 5353 5347 5342 5338 5335 5336 5334 5327 5322 5318 5315
5533 5529 5523 5519 5514 5508 5503 5495 5488 5482 5476 5471 5466 5460 5454 5449 5445 5440 5436 5431 5425 5420 5414 5408 5402 5396 5389 5381 5373 5365 5359 5353 5346 5341 5337 5332 5329 5326 5323 5322 5323 5321 5316 5312
5519 5518 5514 5506 5498 5491 5485 5479 5474 5469 5464 5458 5453 5447 5442 5438 5434 5430 5425 5419 5413 5408 5403 5397 5391 5385 5378 5369 5361 5354 5348 5342 5336 5332 5327 5324 5321 5318 5315 5313 5312 5312 5311 5309
5501 5497 5494 5490 5484 5478 5472 5467 5463 5458 5453 5447 5442 5437 5431 5426 5422 5418 5413 5407 5402 5397 5392 5385 5379 5374 5365 5356 5349 5344 5339 5332 5326 5322 5319 5316 5314 5310 5308 5306 5304 5304 5303 5302
5488 5483 5480 5477 5471 5466 5461 5456 5451 5446 5440 5434 5430 5424 5419 5414 5411 5408 5404 5398 5391 5385 5378 5372 5367 5361 5352 5344 5338 5333 5329 5325 5319 5314 5311 5309 5306 5303 5301 5299 5297 5297 5296 5294
5481 5477 5472 5467 5461 5454 5447 5442 5437 5431 5426 5422 5416 5411 5408 5404 5401 5398 5392 5386 5380 5375 5368 5362 5355 5348 5341 5334 5327 5323 5319 5315 5311 5308 5305 5302 5300 5297 5295 5293 5292 5290 5291 5290
5463 5459 5454 5449 5444 5439 5434 5428 5423 5418 5413 5409 5404 5401 5397 5392 5387 5383 5378 5372 5366 5364 5361 5352 5343 5336 5330 5324 5316 5313 5310 5307 5304 5301 5298 5296 5294 5292 5289 5287 5286 5285 5284 5284
5445 5441 5437 5432 5427 5422 5418 5415 5410 5406 5402 5396 5391 5388 5385 5381 5375 5370 5364 5359 5354 5349 5345 5338 5331 5325 5320 5314 5307 5304 5301 5299 5296 5294 5292 5290 5288 5286 5284 5282 5281 5280 5279 5278
5430 5426 5422 5418 5414 5410 5406 5402 5398 5394 5389 5383 5378 5374 5371 5367 5362 5355 5350 5350 5348 5338 5332 5325 5319 5314 5309 5304 5299 5297 5294 5292 5289 5287 5285 5283 5281 5280 5279 5277 5276 5275 5274 5273
5415 5412 5409 5405 5401 5398 5393 5388 5383 5379 5375 5371 5366 5361 5356 5353 5350 5345 5340 5334 5333 5326 5319 5314 5309 5303 5298 5294 5292 5290 5287 5284 5282 5279 5277 5276 5275 5274 5273 5272 5271 5270 5269 5268
5402 5398 5395 5391 5387 5383 5379 5374 5370 5366 5362 5358 5353 5348 5344 5341 5335 5331 5331 5327 5319 5313 5307 5303 5298 5293 5289 5287 5285 5282 5279 5276 5274 5272 5271 5269 5268 5268 5268 5267 5266 5265 5264 5264
5388 5384 5380 5376 5371 5368 5366 5365 5359 5354 5349 5344 5339 5333 5328 5326 5325 5319 5315 5311 5305 5300 5296 5293 5288 5284 5281 5278 5276 5273 5270 5268 5266 5265 5264 5264 5263 5262 5262 5261 5261 5261 5261 5260
5373 5369 5365 5361 5359 5358 5356 5352 5346 5342 5338 5335 5330 5324 5317 5312 5309 5307 5302 5298 5293 5288 5286 5283 5279 5275 5272 5269 5267 5264 5262 5261 5259 5259 5259 5258 5258 5257 5257 5256 5256 5257 5257 5257
5360 5358 5355 5350 5346 5344 5340 5337 5334 5331 5326 5323 5320 5314 5307 5301 5296 5292 5289 5286 5281 5277 5274 5272 5269 5266 5263 5261 5258 5257 5255 5255 5254 5253 5252 5252 5252 5252 5252 5252 5252 5253 5254 5254
5347 5344 5341 5339 5336 5331 5326 5321 5318 5315 5311 5307 5304 5301 5294 5289 5284 5280 5277 5274 5270 5267 5264 5261 5259 5256 5254 5253 5251 5250 5249 5249 5248 5248 5248 5248 5248 5248 5248 5248 5249 5250 5251 5252